| time (UTC) | temp F | wind direction | speed knots | gust knots | rain 1hr in | rain 24hr in | rain mn in | humidity % | barometer mb |
| 20260902221007 | 56 | 225 | 0.9 | 2.6 | 0.00 | 0.01 | 0.00 | 91 | 1019.5 |
| 20260902220019 | 57 | 90 | 1.7 | 3.5 | 0.00 | 0.01 | 0.00 | 90 | 1019.5 |
| 20260902215008 | 57 | 180 | 0.0 | 0.9 | 0.00 | 0.01 | 0.01 | 89 | 1019.3 |
| 20260902213010 | 58 | 45 | 1.7 | 2.6 | 0.00 | 0.01 | 0.01 | 87 | 1019.2 |
| 20260902212005 | 58 | 90 | 0.9 | 2.6 | 0.00 | 0.01 | 0.01 | 88 | 1019.1 |
| 20260902211008 | 58 | 90 | 0.9 | 2.6 | 0.01 | 0.01 | 0.01 | 87 | 1019.1 |
| 20260902210011 | 59 | 90 | 1.7 | 3.5 | 0.01 | 0.01 | 0.01 | 86 | 1019.2 |
| 20260902205009 | 59 | 45 | 0.9 | 3.5 | 0.01 | 0.01 | 0.01 | 82 | 1019.2 |
| 20260902204008 | 60 | 45 | 3.5 | 7.8 | 0.01 | 0.01 | 0.01 | 82 | 1019.0 |
| 20260902203008 | 60 | 0 | 3.5 | 6.1 | 0.01 | 0.01 | 0.01 | 84 | 1019.4 |
| 20260902201007 | 64 | 180 | 9.6 | 16.5 | 0.00 | 0.00 | 0.00 | 73 | 1019.2 |
| 20260902200013 | 60 | 45 | 0.0 | 2.6 | 0.00 | 0.00 | 0.00 | 83 | 1018.3 |
| 20260902194007 | 60 | 45 | 0.0 | 0.9 | 0.00 | 0.00 | 0.00 | 85 | 1018.5 |
| 20260902193009 | 60 | 45 | 0.0 | 0.0 | 0.00 | 0.00 | 0.00 | 83 | 1018.5 |
| 20260902192006 | 61 | 45 | 0.0 | 0.9 | 0.00 | 0.00 | 0.00 | 82 | 1018.5 |
| 20260902191007 | 61 | 45 | 0.0 | 0.9 | 0.00 | 0.00 | 0.00 | 79 | 1018.4 |
| 20260902190013 | 61 | 45 | 0.0 | 0.9 | 0.00 | 0.00 | 0.00 | 79 | 1018.4 |
| 20260902185008 | 62 | 135 | 0.9 | 2.6 | 0.00 | 0.00 | 0.00 | 77 | 1018.3 |
| 20260902184006 | 63 | 45 | 0.0 | 0.9 | 0.00 | 0.00 | 0.00 | 76 | 1018.2 |
| 20260902182008 | 64 | 45 | 0.0 | 1.7 | 0.00 | 0.00 | 0.00 | 75 | 1018.2 |
| 20260902181007 | 64 | 90 | 0.9 | 1.7 | 0.00 | 0.00 | 0.00 | 75 | 1018.1 |
| 20260902180014 | 65 | 45 | 0.0 | 1.7 | 0.00 | 0.00 | 0.00 | 71 | 1018.1 |
| 20260902175007 | 66 | 90 | 0.9 | 2.6 | 0.00 | 0.00 | 0.00 | 72 | 1017.9 |
| 20260902174007 | 67 | 90 | 0.9 | 2.6 | 0.00 | 0.00 | 0.00 | 69 | 1017.8 |
| 20260902173008 | 68 | 45 | 0.0 | 1.7 | 0.00 | 0.00 | 0.00 | 66 | 1017.8 |
| 20260902171005 | 70 | 45 | 0.0 | 1.7 | 0.00 | 0.00 | 0.00 | 63 | 1017.7 |
| 20260902170011 | 71 | 90 | 0.0 | 1.7 | 0.00 | 0.00 | 0.00 | 61 | 1017.6 |
| 20260902165008 | 72 | 45 | 0.9 | 1.7 | 0.00 | 0.00 | 0.00 | 58 | 1017.6 |
| 20260902164010 | 72 | 45 | 0.0 | 1.7 | 0.00 | 0.00 | 0.00 | 56 | 1017.6 |
| 20260902163008 | 73 | 45 | 0.9 | 2.6 | 0.00 | 0.00 | 0.00 | 56 | 1017.5 |
| 20260902162007 | 74 | 45 | 0.0 | 1.7 | 0.00 | 0.00 | 0.00 | 51 | 1017.3 |
| 20260902161007 | 75 | 225 | 0.0 | 1.7 | 0.00 | 0.00 | 0.00 | 49 | 1017.5 |
| 20260902160018 | 75 | 180 | 1.7 | 3.5 | 0.00 | 0.00 | 0.00 | 48 | 1017.5 |
| 20260902155007 | 74 | 0 | 1.7 | 3.5 | 0.00 | 0.00 | 0.00 | 52 | 1017.5 |
| 20260902154008 | 76 | 90 | 0.9 | 1.7 | 0.00 | 0.00 | 0.00 | 49 | 1017.6 |
| 20260902152006 | 76 | 270 | 3.5 | 4.3 | 0.00 | 0.00 | 0.00 | 49 | 1017.8 |
| 20260902151006 | 75 | 180 | 1.7 | 4.3 | 0.00 | 0.00 | 0.00 | 51 | 1017.9 |
| 20260902150010 | 76 | 270 | 4.3 | 6.1 | 0.00 | 0.00 | 0.00 | 51 | 1017.8 |
| 20260902144007 | 76 | 180 | 2.6 | 4.3 | 0.00 | 0.00 | 0.00 | 54 | 1017.9 |
| 20260902143011 | 74 | 180 | 3.5 | 6.1 | 0.00 | 0.00 | 0.00 | 56 | 1018.3 |
| 20260902142007 | 75 | 270 | 3.5 | 7.8 | 0.00 | 0.00 | 0.00 | 51 | 1018.1 |
| 20260902135007 | 76 | 270 | 3.5 | 7.8 | 0.00 | 0.00 | 0.00 | 51 | 1018.4 |
| 20260902134006 | 75 | 270 | 3.5 | 5.2 | 0.00 | 0.00 | 0.00 | 52 | 1018.4 |
| 20260902133010 | 74 | 270 | 2.6 | 5.2 | 0.00 | 0.00 | 0.00 | 54 | 1018.7 |
| 20260902132009 | 74 | 225 | 3.5 | 4.3 | 0.00 | 0.00 | 0.00 | 56 | 1018.6 |
| 20260902131034 | 75 | 270 | 4.3 | 8.7 | 0.00 | 0.00 | 0.00 | 55 | 1018.4 |
| 20260902125009 | 75 | 180 | 0.9 | 4.3 | 0.00 | 0.00 | 0.00 | 54 | 1018.7 |
| 20260902124010 | 74 | 180 | 2.6 | 3.5 | 0.00 | 0.00 | 0.00 | 55 | 1018.7 |
| 20260902120021 | 75 | 270 | 3.5 | 5.2 | 0.00 | 0.00 | 0.00 | 55 | 1019.1 |
| 20260902115008 | 75 | 180 | 1.7 | 2.6 | 0.00 | 0.00 | 0.00 | 58 | 1019.1 |
| 20260902114008 | 75 | 270 | 3.5 | 4.3 | 0.00 | 0.00 | 0.00 | 58 | 1019.2 |
| 20260902105009 | 74 | 180 | 1.7 | 6.1 | 0.00 | 0.00 | 0.00 | 61 | 1019.6 |
| 20260902104007 | 74 | 270 | 3.5 | 7.8 | 0.00 | 0.00 | 0.00 | 58 | 1019.8 |
| 20260902103011 | 74 | 270 | 3.5 | 7.0 | 0.00 | 0.00 | 0.00 | 62 | 1019.7 |
| 20260902101008 | 72 | 270 | 0.9 | 2.6 | 0.00 | 0.00 | 0.00 | 61 | 1019.8 |
| 20260902100014 | 73 | 270 | 1.7 | 3.5 | 0.00 | 0.00 | 0.00 | 58 | 1019.8 |
| 20260902095006 | 73 | 180 | 0.9 | 2.6 | 0.00 | 0.00 | 0.00 | 65 | 1020.0 |
| 20260902094008 | 72 | 270 | 1.7 | 3.5 | 0.00 | 0.00 | 0.00 | 63 | 1020.0 |
| 20260902093013 | 72 | 225 | 0.9 | 1.7 | 0.00 | 0.00 | 0.00 | 64 | 1020.1 |
| 20260902092008 | 71 | 180 | 0.9 | 2.6 | 0.00 | 0.00 | 0.00 | 64 | 1020.2 |
| 20260902091008 | 70 | 270 | 1.7 | 4.3 | 0.00 | 0.00 | 0.00 | 66 | 1020.2 |
| 20260902090016 | 69 | 180 | 1.7 | 3.5 | 0.00 | 0.00 | 0.00 | 66 | 1020.3 |
| 20260902085006 | 69 | 225 | 1.7 | 3.5 | 0.00 | 0.00 | 0.00 | 66 | 1020.4 |
| 20260902084008 | 67 | 180 | 0.9 | 2.6 | 0.00 | 0.00 | 0.00 | 69 | 1020.5 |
| 20260902083016 | 67 | 270 | 1.7 | 3.5 | 0.00 | 0.00 | 0.00 | 68 | 1020.6 |
| 20260902082009 | 66 | 225 | 0.9 | 3.5 | 0.00 | 0.00 | 0.00 | 68 | 1020.5 |
| 20260902081009 | 66 | 270 | 2.6 | 4.3 | 0.00 | 0.00 | 0.00 | 70 | 1020.6 |
| 20260902080012 | 65 | 270 | 2.6 | 4.3 | 0.00 | 0.00 | 0.00 | 72 | 1020.6 |
| 20260902074008 | 65 | 270 | 2.6 | 4.3 | 0.00 | 0.00 | 0.00 | 76 | 1020.6 |
| 20260902073012 | 64 | 270 | 3.5 | 4.3 | 0.00 | 0.00 | 0.00 | 76 | 1020.7 |
| 20260902072009 | 64 | 270 | 3.5 | 4.3 | 0.00 | 0.00 | 0.00 | 77 | 1020.7 |
| 20260902071008 | 62 | 270 | 0.9 | 2.6 | 0.00 | 0.00 | 0.00 | 75 | 1020.6 |
| 20260902070010 | 61 | 180 | 0.0 | 1.7 | 0.00 | 0.00 | 0.00 | 77 | 1020.6 |
| 20260902065008 | 60 | 180 | 0.0 | 1.7 | 0.00 | 0.00 | 0.00 | 82 | 1020.7 |
| 20260902064007 | 59 | 90 | 0.9 | 1.7 | 0.00 | 0.00 | 0.00 | 85 | 1020.7 |
| 20260902063010 | 57 | 90 | 0.9 | 1.7 | 0.00 | 0.00 | 0.00 | 88 | 1020.8 |
| 20260902062008 | 55 | 90 | 0.9 | 1.7 | 0.00 | 0.00 | 0.00 | 91 | 1020.8 |
| 20260902061006 | 54 | 45 | 0.0 | 1.7 | 0.00 | 0.00 | 0.00 | 94 | 1020.9 |
| 20260902055006 | 52 | 90 | 0.0 | 0.0 | 0.00 | 0.00 | 0.00 | 97 | 1020.9 |
| 20260902054007 | 51 | 90 | 0.0 | 0.9 | 0.00 | 0.00 | 0.00 | 98 | 1021.0 |
| 20260902053006 | 51 | 180 | 0.0 | 0.0 | 0.00 | 0.00 | 0.00 | 98 | 1020.9 |
| 20260902052007 | 50 | 180 | 0.0 | 0.0 | 0.00 | 0.00 | 0.00 | 98 | 1021.0 |
| 20260902051009 | 50 | 0 | 0.0 | 0.9 | 0.00 | 0.00 | 0.00 | 97 | 1020.7 |
| 20260902050013 | 50 | 45 | 0.0 | 0.0 | 0.00 | 0.00 | 0.00 | 97 | 1020.5 |
| 20260902045005 | 49 | 45 | 0.0 | 1.7 | 0.00 | 0.00 | 0.00 | 97 | 1020.7 |
| 20260902044005 | 49 | 135 | 0.0 | 0.9 | 0.00 | 0.00 | 0.00 | 97 | 1020.6 |
| 20260902043006 | 49 | 135 | 0.0 | 0.9 | 0.00 | 0.00 | 0.00 | 97 | 1020.7 |
| 20260902041008 | 49 | 135 | 0.9 | 1.7 | 0.00 | 0.00 | 0.00 | 97 | 1020.7 |
| 20260902040013 | 49 | 0 | 0.0 | 0.9 | 0.00 | 0.00 | 0.00 | 97 | 1020.6 |
| 20260902035009 | 49 | 0 | 0.0 | 1.7 | 0.00 | 0.00 | 0.00 | 97 | 1020.7 |
| 20260902034007 | 49 | 0 | 0.0 | 0.9 | 0.00 | 0.00 | 0.00 | 97 | 1020.5 |
| 20260902033010 | 49 | 0 | 0.0 | 0.9 | 0.00 | 0.00 | 0.00 | 97 | 1020.6 |
| 20260902032008 | 49 | 0 | 0.0 | 0.9 | 0.00 | 0.00 | 0.00 | 97 | 1020.7 |
| 20260902031007 | 49 | 0 | 0.0 | 1.7 | 0.00 | 0.00 | 0.00 | 97 | 1020.7 |
| 20260902030015 | 49 | 0 | 0.0 | 1.7 | 0.00 | 0.00 | 0.00 | 96 | 1020.6 |
| 20260902025008 | 49 | 0 | 0.0 | 0.9 | 0.00 | 0.00 | 0.00 | 97 | 1020.6 |
| 20260902024006 | 49 | 0 | 0.0 | 0.0 | 0.00 | 0.00 | 0.00 | 96 | 1020.4 |
| 20260902023006 | 49 | 0 | 0.0 | 0.9 | 0.00 | 0.00 | 0.00 | 96 | 1020.4 |
| 20260902022008 | 49 | 0 | 0.0 | 0.9 | 0.00 | 0.00 | 0.00 | 96 | 1020.4 |
| 20260902021008 | 50 | 0 | 0.0 | 0.9 | 0.00 | 0.00 | 0.00 | 96 | 1020.4 |
| 20260902020013 | 50 | 0 | 0.0 | 0.9 | 0.00 | 0.00 | 0.00 | 96 | 1020.3 |
| 20260902015008 | 50 | 0 | 0.0 | 0.9 | 0.00 | 0.00 | 0.00 | 96 | 1020.3 |
| 20260902014008 | 50 | 0 | 0.0 | 0.0 | 0.00 | 0.00 | 0.00 | 96 | 1020.2 |
| 20260902013010 | 50 | 0 | 0.0 | 0.0 | 0.00 | 0.00 | 0.00 | 96 | 1020.3 |
| 20260902012009 | 51 | 0 | 0.0 | 0.9 | 0.00 | 0.00 | 0.00 | 96 | 1020.2 |
| 20260902011006 | 51 | 0 | 0.9 | 1.7 | 0.00 | 0.00 | 0.00 | 96 | 1020.1 |
| 20260902010010 | 51 | 0 | 0.0 | 0.0 | 0.00 | 0.00 | 0.00 | 95 | 1020.2 |
| 20260902005008 | 51 | 0 | 0.0 | 0.0 | 0.00 | 0.00 | 0.00 | 95 | 1020.3 |
| 20260902004010 | 51 | 0 | 0.0 | 0.0 | 0.00 | 0.00 | 0.00 | 95 | 1020.2 |
| 20260902003008 | 52 | 0 | 0.0 | 1.7 | 0.00 | 0.00 | 0.00 | 95 | 1020.1 |
| 20260902002006 | 52 | 0 | 0.0 | 1.7 | 0.00 | 0.00 | 0.00 | 95 | 1020.2 |
| 20260902001006 | 52 | 0 | 0.0 | 1.7 | 0.00 | 0.00 | 0.00 | 95 | 1020.3 |
| 20260901235008 | 52 | 0 | 0.0 | 1.7 | 0.00 | 0.00 | 0.00 | 95 | 1020.2 |
| 20260901234006 | 52 | 0 | 0.0 | 0.9 | 0.00 | 0.00 | 0.00 | 95 | 1020.4 |
| 20260901233008 | 52 | 0 | 0.0 | 0.9 | 0.00 | 0.00 | 0.00 | 95 | 1020.4 |
| 20260901232005 | 52 | 0 | 0.0 | 0.0 | 0.00 | 0.00 | 0.00 | 95 | 1020.4 |
| 20260901231006 | 53 | 0 | 0.0 | 0.0 | 0.00 | 0.00 | 0.00 | 95 | 1020.3 |
| 20260901230014 | 53 | 0 | 0.0 | 0.0 | 0.00 | 0.00 | 0.00 | 95 | 1020.3 |
| 20260901225005 | 53 | 0 | 0.0 | 0.0 | 0.00 | 0.00 | 0.00 | 94 | 1020.3 |
| 20260901224005 | 53 | 0 | 0.0 | 0.9 | 0.00 | 0.00 | 0.00 | 94 | 1020.3 |
| 20260901223014 | 54 | 0 | 0.0 | 0.9 | 0.00 | 0.00 | 0.00 | 94 | 1020.3 |
| 20260901222006 | 54 | 0 | 0.0 | 0.9 | 0.00 | 0.00 | 0.00 | 94 | 1020.3 |